Bryce, UT

3:17 PM MST on December 07, 2016 (GMT -0700)
Bryce Canyon

Weather History for KBCE - August, 2013

Change the Weather History Date:

Saturday, August 24, 2013

  Actual Average Record
Temperature  
Mean Temperature 57 °F -  
Max Temperature 71 °F 75 °F 87 °F (1976)
Min Temperature 43 °F 43 °F 30 °F (1968)
Degree Days  
Heating Degree Days 8    
Growing Degree Days 7 (Base 50)    
Moisture  
Dew Point 48 °F    
Average Humidity 74    
Maximum Humidity 97    
Minimum Humidity 39    
Precipitation  
Precipitation 0.06 in - - ()
Sea Level Pressure  
Sea Level Pressure 30.07 in    
Wind  
Wind Speed 8 mph (WSW)    
Max Wind Speed 21 mph    
Max Gust Speed 25 mph    
Visibility 10 miles    
Events Rain , Thunderstorm    
Averages and records for this station are not official NWS values.
T = Trace of Precipitation, MM = Missing Value Source: NWS Daily Summary

Daily Weather History Graph

Daily Weather History Graph

Search for Another Location

Airport or City:

Trip Planner

Search our weather history database for the weather conditions in past years. The results will help you decide how hot, cold, wet, or windy it might be!

Date:

Astronomy

Aug. 24, 2013 Rise Set
Actual Time 6:52 AM MDT 8:08 PM MDT
Civil Twilight 6:24 AM MDT 8:36 PM MDT
Nautical Twilight 5:52 AM MDT 9:08 PM MDT
Astronomical Twilight 5:18 AM MDT 9:42 PM MDT
Moon 10:11 PM MDT (8/24) 10:50 AM MDT (8/24)
Length of Visible Light 14h 11m
Length of Day
13h 16m
Waning Gibbous, 84% of the Moon is Illuminated
Aug 24
Waning Gibbous
Aug 28
Last Quarter
Sep 5
New
Sep 12
First Quarter
Sep 19
Full

Hourly Weather History & Observations

Time (MDT) Temp. Windchill Dew Point Humidity Pressure Visibility Wind Dir Wind Speed Gust Speed Precip Events Conditions
12:53 AM 48.9 °F - 46.0 °F 90% 29.99 in 10.0 mi NW 5.8 mph - N/A   Clear
1:53 AM 46.0 °F 44.8 °F 44.1 °F 93% 30.00 in 10.0 mi West 3.5 mph - N/A   Clear
2:53 AM 45.0 °F 43.5 °F 43.0 °F 93% 29.99 in 10.0 mi West 3.5 mph - N/A   Clear
3:53 AM 44.1 °F 40.1 °F 43.0 °F 96% 29.99 in 10.0 mi West 6.9 mph - N/A   Clear
4:53 AM 43.0 °F 41.3 °F 42.1 °F 97% 30.01 in 10.0 mi WSW 3.5 mph - N/A   Clear
5:53 AM 45.0 °F 42.6 °F 43.0 °F 93% 29.99 in 10.0 mi West 4.6 mph - N/A   Clear
6:53 AM 45.0 °F 40.6 °F 44.1 °F 97% 30.02 in 10.0 mi West 8.1 mph - N/A   Overcast
7:53 AM 50.0 °F - 48.0 °F 93% 30.02 in 10.0 mi West 4.6 mph - N/A   Overcast
8:53 AM 57.0 °F - 50.0 °F 77% 30.01 in 10.0 mi Calm Calm - N/A   Clear
9:53 AM 64.0 °F - 48.9 °F 58% 30.01 in 10.0 mi SE 9.2 mph - N/A   Clear
10:53 AM 66.0 °F - 50.0 °F 56% 30.02 in 10.0 mi SSE 11.5 mph - N/A   Clear
11:53 AM 66.0 °F - 50.0 °F 56% 30.01 in 10.0 mi ESE 13.8 mph 21.9 mph N/A   Clear
12:53 PM 68.0 °F - 50.0 °F 52% 29.98 in 10.0 mi SSE 17.3 mph 23.0 mph N/A   Clear
1:53 PM 69.1 °F - 48.9 °F 49% 29.99 in 10.0 mi South 11.5 mph 23.0 mph N/A   Clear
2:53 PM 70.0 °F - 48.0 °F 46% 29.97 in 10.0 mi ESE 13.8 mph - N/A   Partly Cloudy
3:53 PM 71.1 °F - 45.0 °F 39% 29.94 in 10.0 mi SE 18.4 mph 23.0 mph N/A   Clear
4:08 PM 66.2 °F - 46.4 °F 49% 30.26 in 10.0 mi SSE 12.7 mph 20.7 mph N/A Thunderstorm Scattered Clouds
4:20 PM 66.2 °F - 46.4 °F 49% 30.27 in 10.0 mi SSE 12.7 mph 21.9 mph N/A Thunderstorm Partly Cloudy
4:53 PM 66.0 °F - 46.9 °F 50% 29.99 in 10.0 mi South 10.4 mph - N/A   Mostly Cloudy
5:53 PM 64.0 °F - 50.0 °F 60% 29.97 in 10.0 mi WNW 3.5 mph - N/A   Scattered Clouds
6:53 PM 60.1 °F - 50.0 °F 69% 30.01 in 10.0 mi West 11.5 mph - N/A   Overcast
7:42 PM 57.2 °F - 50.0 °F 77% 30.30 in 10.0 mi West 11.5 mph - 0.00 in Thunderstorm Mostly Cloudy
7:53 PM 57.9 °F - 50.0 °F 75% 30.03 in 10.0 mi West 13.8 mph - 0.00 in Thunderstorm Overcast
8:02 PM 57.2 °F - 48.2 °F 72% 30.31 in 10.0 mi WNW 20.7 mph 25.3 mph N/A   Overcast
8:13 PM 55.4 °F - 48.2 °F 77% 30.32 in 10.0 mi WNW 16.1 mph 23.0 mph N/A Thunderstorm Overcast
8:53 PM 55.0 °F - 51.1 °F 86% 30.04 in 10.0 mi NW 6.9 mph - 0.00 in Rain Light Rain
9:09 PM 55.4 °F - 50.0 °F 82% 30.33 in 10.0 mi NNE 6.9 mph - 0.00 in Thunderstorm Scattered Clouds
9:24 PM 55.4 °F - 51.8 °F 88% 30.36 in 10.0 mi Calm Calm - 0.00 in Thunderstorm Scattered Clouds
10:53 PM 53.1 °F - 52.0 °F 96% 30.02 in 10.0 mi NNE 6.9 mph - 0.00 in   Unknown
11:53 PM 51.1 °F - 48.9 °F 92% 30.02 in 10.0 mi ENE 4.6 mph - N/A   Clear